Wind_Speed
13 11 10 16 10 15 11 21 17 14 11 10 10 12 14 9 5 5 13 11 13 15 16 15 15 15 15 15 15 15 15 14 13 13 13 13 14 13 11 11 10 10 10 10 10 10 10 10 10
15 18 15 11 11 20 17 14 13 11 9 11 9 9 16 14 7 16 20 14 13 14 15 15 15 15 14 15 14 15 14 13 11 11 11 11 11 11 10 10 10 9 8 9 8 8 8 9 9
14 17 14 12 17 15 13 9 10 10 8 4 10 12 18 20 18 18 17 15 15 14 15 15 15 15 15 15 14 14 13 12 11 10 9 8 9 9 8 8 9 8 7 7 7 7 7 8 8
21 15 9 17 16 15 10 7 12 11 12 10 6 12 14 15 18 16 18 15 14 14 15 14 14 15 14 14 14 12 11 10 9 8 8 7 6 6 6 6 6 5 6 5 5 5 5 6 6
11 6 11 19 15 11 8 15 11 12 11 14 8 16 17 13 12 15 18 14 13 16 14 13 14 14 14 14 13 12 10 9 8 6 6 5 4 4 3 2 2 3 3 3 3 3 3 4 5
11 6 2 15 11 11 11 15 11 18 15 12 11 10 11 13 12 17 20 17 12 13 13 13 13 14 14 13 12 10 9 8 6 5 3 2 2 0 1 1 2 2 3 4 4 3 3 3 3
13 12 11 11 12 9 9 11 23 19 15 11 8 7 11 12 15 20 19 19 13 13 13 13 12 12 12 11 10 9 7 5 4 3 2 2 2 4 5 6 6 6 6 7 6 6 5 5 5
8 7 13 16 8 7 7 9 13 21 10 9 6 4 13 11 17 21 19 18 10 12 11 11 12 11 11 10 8 6 5 3 3 2 3 4 6 6 7 10 10 11 12 10 9 7 7 7 7
5 2 11 6 8 5 3 11 5 13 15 15 10 10 1 8 18 21 19 17 16 9 10 10 10 9 8 8 6 5 3 1 0 2 4 7 8 8 9 8 7 10 14 15 11 11 9 9 9
7 2 8 2 5 7 8 15 16 10 8 14 16 8 7 14 20 20 19 17 17 11 8 9 9 8 7 8 5 3 3 4 3 2 5 10 7 9 8 5 6 5 4 12 13 14 14 14 12
3 6 3 4 1 6 7 5 19 9 8 8 15 13 14 19 18 18 17 15 15 11 10 8 2 4 3 4 2 4 7 5 0 5 5 7 10 10 8 6 4 4 3 3 7 7 10 10 14
3 1 0 0 3 2 5 11 3 15 13 10 12 12 16 16 16 16 15 14 15 11 13 13 13 11 6 8 5 4 6 9 7 4 9 4 11 6 9 10 8 6 3 5 6 6 7 8 13
3 2 3 3 4 3 3 4 4 11 10 11 11 16 13 12 13 13 13 14 15 9 13 19 19 11 10 10 8 6 6 10 11 12 7 5 7 8 6 8 9 9 8 8 8 8 9 8 8
6 5 6 4 1 1 3 4 9 15 5 10 13 12 11 10 12 12 14 17 11 8 9 11 13 9 11 11 10 8 6 8 8 14 9 8 8 8 7 9 8 9 11 11 10 8 8 10 11
6 9 11 6 3 2 5 4 6 2 5 6 6 9 10 9 8 10 15 16 10 9 13 13 9 7 7 9 10 9 8 7 7 9 12 11 11 12 12 11 12 10 11 10 9 9 8 8 9
9 10 10 6 6 3 5 4 6 7 6 14 8 8 6 9 7 9 12 7 14 12 21 14 3 11 8 9 8 8 8 8 6 12 9 10 10 13 14 15 14 12 12 10 11 11 11 12 11
15 13 2 12 10 6 11 9 6 4 6 9 11 8 10 8 9 6 9 10 18 14 9 5 8 10 9 9 9 8 7 5 5 6 8 12 20 25 16 13 12 13 13 16 18 16 14 13 12
12 17 11 13 6 2 7 8 17 7 7 7 19 8 10 9 10 12 12 12 13 15 7 3 8 11 5 5 6 6 6 5 4 5 6 11 25 30 22 14 11 13 14 16 18 18 18 14 17
15 13 16 11 2 4 10 5 2 10 3 8 12 19 5 20 9 9 9 12 13 17 7 6 5 7 10 10 7 5 6 5 10 6 9 17 25 24 16 18 13 14 15 18 20 21 20 20 18
15 12 10 3 5 8 8 7 10 9 6 6 10 14 5 17 13 12 12 13 15 17 11 7 3 5 6 9 8 7 5 9 8 10 12 15 17 15 5 10 14 12 17 20 24 26 25 23 22
14 15 4 1 12 11 10 13 11 5 3 8 9 10 8 11 9 10 7 2 8 13 7 9 4 1 2 3 4 5 6 8 10 11 13 13 14 14 10 10 14 18 20 23 24 23 27 28 24
20 16 5 9 11 15 11 17 19 18 12 10 11 10 11 7 5 9 12 7 4 6 5 6 6 6 6 5 3 3 4 6 7 10 15 13 14 14 14 13 14 17 20 23 25 25 23 25 28
15 5 9 14 13 18 17 14 7 10 6 10 8 10 10 10 9 7 8 9 8 8 2 5 5 5 7 7 6 3 3 5 8 11 15 16 17 24 17 10 14 15 17 20 22 22 21 20 25
21 12 13 15 16 21 23 19 15 17 7 8 6 13 8 9 9 7 8 8 13 5 3 1 2 2 3 3 4 2 3 5 8 11 14 16 16 14 20 20 14 14 16 19 22 24 23 20 21
22 20 15 16 16 5 13 5 11 10 12 8 7 11 9 10 12 10 13 14 15 2 2 1 1 1 1 3 4 4 5 6 9 12 15 16 16 17 16 15 14 14 17 19 22 23 25 17 17
26 22 24 12 4 18 4 10 13 14 11 8 8 11 12 13 10 10 14 14 7 4 2 2 2 3 4 5 5 5 5 9 13 14 13 14 13 14 13 14 15 15 15 16 18 23 23 12 10
25 21 26 24 8 20 27 15 17 9 7 4 10 16 15 13 13 10 9 6 7 5 6 6 6 7 8 7 6 6 8 12 14 12 9 10 11 13 15 15 16 16 16 15 16 18 20 15 11
24 22 17 23 10 6 22 9 19 8 5 4 9 15 17 17 13 12 11 8 5 6 6 7 9 10 11 9 9 7 9 12 10 8 10 14 16 19 18 18 18 17 16 14 14 14 15 15 12
24 22 24 27 25 7 5 12 13 15 2 6 9 14 17 16 14 12 13 15 9 5 3 5 8 11 12 8 8 6 10 11 7 9 12 16 17 21 24 23 20 18 18 18 15 13 11 13 13
23 25 26 33 16 18 14 13 4 5 3 8 10 14 18 17 14 14 13 10 8 3 3 4 8 11 9 8 7 3 15 13 11 13 16 18 18 22 25 27 24 22 20 18 18 16 13 11 11
Wind_Direction
82 79 61 40 50 82 60 48 61 47 69 73 46 93 70 41 141 179 141 143 142 134 129 128 124 122 122 118 116 115 115 112 106 99 98 97 95 91 93 93 102 103 105 105 106 102 98 97 97
83 65 42 42 27 66 69 63 56 64 78 87 68 79 73 92 113 131 137 153 134 131 127 125 124 123 122 122 124 124 122 118 115 111 105 100 101 97 93 95 99 100 102 104 104 112 115 110 100
79 70 56 35 51 64 57 55 88 75 83 79 104 70 65 104 108 132 153 144 137 133 128 126 128 127 128 130 130 129 128 124 120 117 112 104 99 98 93 100 102 101 103 103 104 109 114 112 108
64 13 18 63 62 61 69 71 93 83 74 83 85 82 96 121 128 160 142 141 136 137 131 131 131 132 133 134 135 136 132 127 121 116 112 108 103 98 92 98 105 96 102 106 110 112 115 118 120
353 65 123 83 59 64 50 69 76 80 76 72 111 99 110 120 166 140 140 143 142 127 134 138 138 138 137 137 138 139 137 131 124 120 117 115 108 108 97 99 108 137 149 140 137 131 140 134 138
16 11 14 93 76 57 35 62 71 82 79 83 95 98 109 145 152 138 139 135 170 132 139 143 145 144 143 141 141 142 140 136 133 128 119 110 97 8 270 270 257 243 221 212 201 206 201 216 197
299 270 58 96 89 61 48 11 80 74 72 81 105 56 126 142 147 140 143 140 199 148 146 148 151 148 146 146 146 145 146 143 126 116 101 41 11 327 301 288 274 259 254 235 228 222 229 228 232
359 0 73 35 57 74 59 70 72 69 52 50 14 61 141 148 149 145 148 157 183 151 154 153 152 151 149 149 149 149 148 137 104 57 26 1 357 340 324 311 283 255 249 246 239 238 246 247 239
20 312 106 127 75 62 245 68 112 84 111 82 84 112 170 140 150 150 154 168 172 181 169 166 163 163 160 154 156 158 156 159 90 2 343 5 349 9 345 344 318 265 241 235 231 235 232 247 244
286 319 36 25 24 50 55 100 42 355 112 97 77 90 97 145 154 158 163 180 170 203 186 185 185 177 185 176 177 191 224 222 245 303 351 12 27 16 20 7 331 312 264 221 225 239 252 250 235
16 78 55 51 82 13 2 52 351 50 61 61 45 52 127 151 157 164 171 184 184 196 157 228 224 198 160 232 212 238 235 237 8 324 47 32 358 15 12 350 342 310 326 200 241 233 260 245 227
239 90 147 16 338 356 358 348 93 89 102 108 44 65 139 150 162 172 178 188 205 198 177 193 224 234 218 236 263 297 315 317 325 337 345 324 358 359 8 339 344 355 347 302 287 264 288 247 232
251 309 299 291 236 313 336 4 46 48 90 110 104 125 133 146 164 178 182 197 209 219 203 188 227 228 223 245 242 227 205 298 329 327 332 314 329 356 20 333 330 331 333 325 303 296 282 276 267
291 246 276 276 260 246 357 25 320 92 130 126 131 125 131 146 165 175 181 203 206 199 201 208 224 224 231 235 250 257 253 214 255 259 328 327 332 331 333 321 325 319 323 321 312 301 296 281 284
257 260 241 225 249 202 332 306 290 50 166 122 148 153 144 177 177 183 190 202 255 207 204 202 211 219 221 232 243 251 256 247 282 323 322 338 335 318 312 304 307 308 301 309 303 299 299 281 270
242 252 261 195 258 245 225 341 164 172 207 160 192 171 163 170 192 194 204 257 250 228 206 210 204 289 223 228 243 266 271 274 292 260 319 333 340 332 314 304 306 310 301 313 290 287 281 285 283
233 237 169 234 226 264 262 120 246 216 223 222 153 178 169 169 193 238 244 261 285 278 258 219 201 271 229 227 234 257 278 294 297 311 310 342 331 323 316 300 304 307 307 302 298 289 304 282 282
257 282 284 263 174 286 299 167 280 194 236 245 212 233 181 182 180 228 232 264 292 295 346 305 222 256 253 246 247 254 293 346 325 335 345 291 331 304 279 285 291 299 302 299 293 294 292 286 275
254 213 210 201 224 250 283 256 173 169 215 226 246 339 177 187 195 214 224 234 274 290 330 317 301 240 249 263 263 268 285 1 311 179 338 325 326 316 264 250 281 290 302 307 298 290 284 280 276
239 253 252 163 312 258 259 261 234 240 239 214 264 276 265 128 152 203 215 212 238 273 332 348 343 245 234 242 262 278 317 289 321 337 338 328 326 0 16 287 281 287 306 313 301 286 283 276 270
249 247 199 132 246 266 264 262 257 259 255 244 215 260 254 109 166 227 259 33 257 261 311 338 328 298 245 256 267 291 294 291 303 317 321 316 329 335 332 323 297 296 298 307 314 296 278 268 265
258 243 301 218 248 257 234 260 240 211 271 225 232 201 202 180 199 231 236 238 336 308 281 321 332 305 286 289 299 282 284 297 294 307 314 322 324 315 313 312 301 296 298 302 305 303 291 265 249
238 133 257 277 259 258 229 254 192 186 226 205 232 211 197 190 197 194 271 219 229 316 311 284 319 320 295 295 302 277 283 293 300 300 296 316 335 327 335 317 294 299 312 315 318 315 297 272 249
231 246 238 255 249 257 259 209 181 187 207 192 189 205 193 194 181 144 171 209 256 292 303 221 270 316 299 283 291 270 270 295 302 316 314 323 326 331 295 315 311 296 310 320 327 331 318 288 259
229 244 242 241 231 63 11 358 288 177 132 158 191 181 183 180 174 182 195 218 247 275 259 176 253 270 270 275 286 295 322 322 312 305 306 315 304 296 320 316 316 307 311 319 331 335 331 301 267
222 229 242 240 66 306 304 218 269 174 167 178 165 178 181 178 191 193 210 224 221 250 254 227 238 259 255 255 272 293 314 323 320 327 320 318 323 323 340 337 331 327 318 318 327 342 352 346 317
241 243 241 263 262 261 259 265 221 160 158 179 165 173 177 174 174 191 208 209 203 237 255 263 252 262 268 273 274 292 327 329 330 332 342 355 359 352 350 349 345 339 336 331 328 338 354 348 325
222 240 253 260 173 221 236 136 145 163 187 197 180 178 175 180 173 183 180 228 205 226 249 265 262 264 267 274 275 299 323 336 346 2 19 20 18 14 7 0 354 345 338 336 330 329 344 356 354
226 233 257 250 272 295 251 125 135 143 167 188 191 190 181 181 167 174 181 192 225 229 246 272 277 279 273 266 267 292 336 344 348 3 359 356 355 359 1 0 356 350 344 336 330 325 322 334 337
225 220 225 240 227 253 274 151 120 335 217 197 195 195 187 181 171 180 196 204 215 218 253 273 311 295 294 271 248 278 314 330 350 340 331 338 340 352 350 348 345 342 339 338 332 322 308 295 304
Height
3168 3166 3165 3163 3167 3167 3167 3167 3167 3167 3168 3169 3170 3169 3168 3166 3166 3173 3174 3176 3178 3179 3179 3180 3181 3182 3183 3184 3185 3187 3189 3190 3191 3192 3193 3193 3194 3195 3196 3197 3198 3198 3199 3199 3200 3201 3202 3203 3204
3172 3166 3165 3164 3168 3167 3168 3169 3169 3170 3170 3170 3172 3169 3168 3170 3169 3170 3175 3177 3179 3180 3180 3181 3182 3184 3185 3187 3188 3190 3191 3192 3193 3195 3196 3196 3197 3197 3198 3199 3199 3200 3200 3201 3202 3202 3203 3205 3206
3171 3167 3167 3170 3171 3170 3170 3169 3168 3169 3170 3169 3172 3171 3170 3171 3173 3175 3176 3177 3179 3180 3181 3182 3184 3185 3187 3189 3190 3192 3193 3194 3196 3197 3197 3198 3199 3199 3200 3200 3200 3201 3202 3202 3203 3204 3205 3206 3207
3172 3173 3172 3174 3173 3173 3171 3169 3168 3169 3169 3171 3169 3171 3175 3177 3178 3176 3177 3178 3179 3181 3182 3184 3185 3187 3189 3190 3192 3193 3195 3196 3197 3198 3199 3199 3200 3201 3201 3201 3202 3203 3203 3203 3204 3205 3206 3207 3208
3176 3178 3168 3173 3176 3174 3172 3167 3173 3169 3171 3173 3170 3172 3175 3179 3177 3178 3180 3180 3181 3182 3184 3185 3187 3189 3190 3192 3193 3195 3196 3197 3198 3199 3200 3201 3201 3202 3202 3202 3203 3203 3203 3204 3205 3206 3207 3208 3208
3180 3178 3175 3177 3177 3176 3174 3169 3173 3171 3173 3174 3174 3173 3174 3176 3177 3179 3183 3183 3182 3184 3186 3187 3189 3190 3191 3193 3194 3196 3197 3198 3199 3200 3200 3201 3202 3202 3203 3202 3202 3203 3203 3204 3205 3206 3207 3208 3209
3182 3179 3179 3177 3178 3178 3177 3174 3169 3174 3176 3178 3174 3174 3176 3175 3177 3180 3184 3187 3183 3186 3187 3188 3190 3191 3192 3194 3195 3196 3197 3198 3199 3200 3201 3201 3202 3202 3202 3203 3203 3203 3203 3203 3204 3206 3206 3207 3209
3182 3179 3178 3179 3180 3180 3179 3180 3176 3176 3180 3179 3176 3172 3175 3175 3177 3182 3186 3187 3184 3186 3188 3190 3191 3192 3193 3194 3195 3197 3198 3199 3200 3201 3200 3200 3200 3201 3201 3201 3201 3201 3202 3203 3204 3205 3206 3207 3208
3187 3186 3181 3181 3180 3181 3179 3172 3182 3175 3174 3176 3176 3173 3174 3175 3178 3183 3187 3187 3187 3186 3188 3190 3191 3193 3194 3195 3196 3198 3200 3201 3202 3202 3201 3201 3199 3200 3199 3198 3198 3199 3199 3201 3202 3204 3204 3205 3207
3189 3184 3183 3183 3183 3181 3175 3181 3178 3177 3170 3182 3173 3174 3173 3176 3179 3183 3187 3186 3188 3186 3188 3190 3191 3193 3194 3194 3196 3198 3200 3201 3201 3202 3202 3202 3199 3199 3199 3199 3199 3198 3198 3198 3201 3202 3203 3203 3205
3187 3186 3185 3184 3184 3184 3170 3173 3177 3182 3175 3176 3173 3173 3174 3177 3181 3184 3187 3187 3188 3188 3189 3190 3190 3192 3193 3193 3195 3198 3199 3200 3202 3203 3201 3202 3201 3199 3200 3199 3198 3199 3199 3199 3200 3201 3200 3200 3202
3188 3187 3187 3186 3185 3185 3184 3177 3174 3167 3177 3177 3174 3173 3175 3179 3182 3185 3187 3188 3187 3188 3190 3193 3192 3191 3194 3193 3195 3195 3196 3197 3198 3199 3201 3201 3200 3200 3200 3199 3198 3199 3199 3198 3199 3199 3199 3199 3200
3187 3187 3186 3184 3184 3185 3185 3184 3186 3166 3178 3175 3173 3174 3176 3179 3182 3185 3187 3188 3187 3187 3188 3191 3190 3191 3193 3193 3195 3196 3198 3196 3195 3197 3196 3201 3200 3200 3200 3199 3198 3197 3197 3197 3196 3197 3198 3197 3198
3187 3187 3186 3185 3183 3184 3185 3184 3180 3177 3177 3178 3176 3175 3176 3179 3182 3184 3186 3186 3185 3185 3187 3189 3189 3191 3192 3193 3194 3196 3196 3198 3198 3198 3197 3199 3199 3199 3200 3198 3196 3196 3195 3195 3195 3194 3194 3196 3196
3186 3186 3184 3184 3183 3184 3184 3185 3180 3183 3182 3185 3185 3184 3179 3178 3180 3181 3184 3184 3183 3186 3186 3186 3189 3191 3191 3193 3194 3195 3196 3196 3196 3195 3195 3197 3197 3197 3197 3197 3196 3195 3195 3195 3195 3195 3194 3193 3193
3184 3184 3181 3183 3183 3181 3182 3179 3177 3179 3185 3180 3184 3188 3188 3185 3183 3183 3178 3182 3182 3185 3179 3184 3188 3190 3190 3191 3193 3196 3196 3194 3194 3195 3194 3196 3197 3196 3194 3194 3194 3195 3194 3193 3193 3193 3192 3192 3191
3181 3179 3180 3181 3181 3182 3179 3178 3179 3182 3185 3181 3179 3184 3182 3185 3187 3184 3181 3181 3179 3184 3185 3184 3185 3187 3186 3188 3191 3193 3194 3192 3192 3193 3194 3194 3193 3192 3193 3193 3192 3192 3192 3192 3191 3188 3185 3187 3189
3183 3181 3177 3178 3179 3180 3179 3176 3174 3177 3182 3180 3173 3175 3184 3182 3182 3185 3184 3183 3182 3183 3180 3183 3185 3186 3186 3187 3189 3191 3192 3191 3191 3192 3192 3194 3190 3188 3187 3190 3190 3189 3189 3189 3187 3186 3184 3184 3184
3180 3181 3179 3177 3177 3178 3177 3176 3173 3173 3179 3179 3168 3167 3179 3182 3178 3182 3185 3184 3180 3181 3182 3182 3184 3184 3184 3185 3190 3191 3191 3188 3188 3184 3191 3191 3189 3182 3179 3186 3186 3186 3186 3184 3183 3182 3182 3181 3180
3178 3176 3174 3173 3178 3179 3176 3175 3176 3175 3178 3181 3170 3166 3171 3173 3174 3180 3183 3186 3184 3179 3179 3181 3184 3185 3187 3188 3190 3189 3188 3188 3188 3189 3189 3190 3188 3183 3182 3183 3183 3182 3182 3181 3178 3176 3177 3177 3176
3175 3173 3173 3175 3178 3176 3174 3173 3173 3177 3178 3181 3180 3173 3164 3162 3176 3178 3181 3182 3183 3181 3181 3183 3184 3186 3187 3187 3188 3188 3188 3189 3188 3189 3189 3189 3186 3183 3182 3181 3180 3179 3178 3176 3173 3170 3169 3170 3170
3170 3171 3173 3173 3174 3171 3170 3170 3171 3171 3173 3179 3180 3179 3176 3175 3179 3181 3181 3181 3182 3181 3181 3183 3184 3185 3186 3187 3186 3187 3188 3189 3188 3188 3186 3185 3184 3182 3180 3178 3177 3175 3174 3171 3168 3164 3161 3160 3162
3168 3171 3173 3171 3169 3168 3167 3169 3168 3173 3175 3174 3178 3178 3178 3178 3180 3182 3182 3181 3181 3181 3182 3183 3184 3185 3186 3187 3187 3187 3187 3189 3187 3187 3186 3184 3181 3179 3175 3175 3173 3172 3170 3167 3163 3157 3154 3153 3153
3168 3173 3171 3169 3166 3162 3155 3163 3164 3168 3166 3168 3174 3177 3178 3178 3179 3182 3182 3181 3180 3182 3182 3183 3184 3185 3186 3187 3188 3187 3188 3188 3186 3186 3184 3182 3181 3178 3173 3170 3169 3167 3166 3163 3159 3153 3148 3145 3146
3165 3165 3164 3163 3159 3165 3165 3164 3163 3164 3165 3169 3172 3173 3175 3179 3179 3181 3183 3182 3181 3183 3183 3183 3184 3185 3186 3187 3188 3188 3188 3188 3187 3185 3182 3181 3178 3175 3173 3169 3166 3164 3161 3159 3155 3151 3144 3140 3140
3161 3162 3159 3159 3176 3173 3174 3165 3168 3165 3164 3166 3167 3170 3174 3177 3178 3179 3180 3180 3182 3182 3183 3183 3184 3185 3185 3186 3187 3187 3187 3186 3184 3182 3180 3177 3175 3172 3168 3165 3163 3161 3158 3156 3153 3149 3143 3139 3139
3158 3157 3157 3155 3170 3175 3163 3163 3163 3163 3164 3166 3165 3166 3171 3175 3177 3178 3178 3178 3180 3182 3183 3183 3184 3184 3184 3185 3186 3186 3185 3183 3181 3179 3177 3175 3172 3169 3165 3162 3160 3157 3155 3152 3150 3148 3144 3141 3139
3155 3157 3156 3154 3161 3164 3154 3157 3160 3165 3165 3166 3167 3168 3169 3173 3176 3178 3179 3178 3179 3180 3182 3183 3183 3183 3183 3184 3184 3184 3183 3183 3180 3178 3176 3174 3171 3167 3164 3161 3158 3155 3153 3150 3148 3146 3144 3141 3139
3152 3153 3155 3153 3151 3145 3146 3153 3156 3160 3161 3164 3167 3170 3170 3172 3175 3177 3178 3178 3178 3179 3181 3181 3182 3181 3180 3181 3182 3183 3183 3180 3178 3176 3174 3172 3169 3166 3163 3160 3156 3154 3151 3148 3145 3143 3143 3141 3139
3146 3148 3150 3147 3149 3145 3144 3157 3161 3163 3162 3162 3165 3169 3170 3171 3175 3176 3175 3175 3177 3178 3179 3180 3178 3178 3179 3180 3180 3180 3181 3179 3176 3174 3173 3170 3168 3165 3162 3159 3155 3151 3149 3147 3143 3141 3138 3137 3136